Weather Roundup
Issued by NWS Chicago, IL

Home | Current Version | Previous Version | Graphics & Text | Print | Product List | Glossary On
Versions: 1 2 3 4 5 6 7 8 9 10 11 12 13 14 15 16 17 18 19 20 21 22 23 24 25 26 27 28 29 30 31 32 33 34 35 36 37 38 39 40 41 42 43 44 45 46 47 48 49 50
000
NZUS59 KLOT 211106
HRRLOT

CHICAGO AREA WEATHER ROUNDUP
NATIONAL WEATHER SERVICE CHICAGO/ROMEOVILLE IL
500 AM CST FRI NOV 21 2014

NOTE: "FAIR" INDICATES FEW OR NO CLOUDS BELOW 12,000 FEET WITH NO
SIGNIFICANT WEATHER AND/OR OBSTRUCTIONS TO VISIBILITY.

* THESE STATIONS ARE NOT UNDER NWS QUALITY CONTROL. THEY ALSO MAY NOT
  REPORT WEATHER SUCH AS PRECIPITATION OR FOG.

ILZ005-006-012>014-019>023-211200-
NORTHEAST ILLINOIS

CITY           SKY/WX    TMP DP  RH WIND       PRES   REMARKS
OHARE          PTCLDY    10   3  73 W6        30.40R WCI   0
MIDWAY         PTCLDY    14   4  64 W6        30.41R WCI   5
AURORA         PTCLDY     4  -3  73 CALM      30.40R
LANSING*       PTCLDY    10   4  77 W6        30.41R WCI   0
JOLIET*        PTCLDY     5   1  84 CALM      30.42R
WAUKEGAN       PTCLDY     9   1  70 VRB3      30.38R
DUPAGE AIRPORT PTCLDY     8   3  80 CALM      30.39R
WHEELING       PTCLDY    11   3  70 SW3       30.42R
KANKAKEE*      MOCLDY     7   3  84 CALM      30.43R
MORRIS*        PTCLDY     7   3  84 CALM      30.41R
LEWIS AIRPORT* PTCLDY     9   4  83 CALM      30.41R
NORTHERLY IS     N/A     17   3  54 W12         N/A  WCI   4
$$

WIZ051-052-058>065-066-070>072-211200-
SOUTHEAST WISCONSIN

CITY           SKY/WX    TMP DP  RH WIND       PRES   REMARKS
MILWAUKEE      PTCLDY    12  -1  56 W7        30.37S WCI   1
KENOSHA*       PTCLDY     6   0  76 W5        30.38R WCI  -3
RACINE*        PTCLDY     9  -1  64 W7        30.39R WCI  -2
BURLINGTON     PTCLDY    -1  -4  85 S3        30.37S
WEST BEND      PTCLDY     9   0  66 CALM      30.36R
$$

INZ001>003-010>013-019-020-211200-
NORTHWEST INDIANA

CITY           SKY/WX    TMP DP  RH WIND       PRES   REMARKS
GARY*          CLEAR     16   5  62 W8        30.41R WCI   5
MICHIGAN CITY* NOT AVBL
RENSSELAER*    NOT AVBL
VALPARAISO     CLEAR     12   3  67 W6        30.40R WCI   3
$$

LMZ740>746-211200-
SOUTHERN LAKE MICHIGAN

STATION/POSITION TIME  SKY/WX   TEMP WIND        PRES    VSBY
                                AIR  DIR/SP/G
                 (UTC)          (F)  (DEG/KT/KT) (MB)    (MI)
HARRISON CRIB    1100            17  290/  9/ 11   N/A
BURNHAM HARBOR   1100            17  280/  8/ 10   N/A
CALUMET HARBOR   1100            15  240/  4/  6 1028.3R
BURNS HARBOR     NOT AVBL
MICHIGAN CITY    1100            23  300/  9/ 12   N/A
$$

ABBREVIATIONS USED IN REMARKS
   TC - TEMPERATURE IN CELSIUS
  WCI - WIND CHILL INDEX
   HX - HEAT INDEX
  VSB - VISIBILITY
$$


USA.gov is the U.S. government's official web portal to all federal, state and local government web resources and services.